軌道要素
Epoch 2022 Jan. 21.0 TT = JDT 2459600.5
T 2021 Dec. 2.22203 TT Rudenko
q 1.5546086 (2000.0) P Q
n 0.17996644 Peri. 94.50084 -0.85624314 -0.51263611
a 3.1070031 Node 54.67261 +0.43760376 -0.78530012
e 0.4996437 Incl. 4.47484 +0.27450069 -0.34714255
P 5.48
From 325 observations 2011 Jan. 11-2022 Jan. 8, mean residual 0".9.
|